"2016-06-21 00:00:00",1740891,1.211,220,6.799,0.094,20.83,108.1282,20.09,21.09,62.58,0,111.1,13.06,20.91,182.0
"2016-06-21 00:00:30",1740892,1.14,213.9,3.71,0.102,20.77,108.1282,20.09,21.1,62.59,0,111.1,13.05,20.91,175.9
"2016-06-21 00:01:00",1740893,1.018,214.1,6.465,0.101,20.83,108.1251,20.08,21.09,62.47,0,111.1,13.05,20.90,176.1
"2016-06-21 00:01:30",1740894,0.9,206,11.93,0.079,20.8,108.0998,20.02,21.08,62.53,0,111.1,13.06,20.84,168.0
"2016-06-21 00:02:00",1740895,1.23,211.1,5.759,0.105,20.57,108.0944,20,21.06,62.69,0,111.1,13.05,20.82,173.1
"2016-06-21 00:02:30",1740896,1.117,218,2.789,0.082,20.72,108.0944,20,21.04,62.78,0,111.1,13.06,20.82,180.0
"2016-06-21 00:03:00",1740897,1.281,222,2.598,0.101,20.6,108.0944,20,21.04,62.84,0,111.1,13.06,20.82,184.0
"2016-06-21 00:03:30",1740898,1.175,219.4,3.305,0.053,20.56,108.0944,20,21.03,62.86,0,111.1,13.06,20.82,181.4
"2016-06-21 00:04:00",1740899,1.261,222.5,1.957,0.145,20.48,108.0984,20.01,21.03,62.81,0,111.1,13.06,20.83,184.5
"2016-06-21 00:04:30",1740900,1.327,222.9,2.396,0.14,20.4,108.1036,20.03,21.04,62.65,0,111.1,13.06,20.85,184.9
"2016-06-21 00:05:00",1740901,1.458,229.2,3.816,0.134,20.38,108.1227,20.07,21.03,62.54,0,111.1,13.06,20.90,191.2
"2016-06-21 00:05:30",1740902,1.445,219.6,4.734,0.243,20.59,108.1209,20.07,21.04,62.49,0,111.1,13.06,20.89,181.6
"2016-06-21 00:06:00",1740903,2.001,210.4,8.11,0.145,20.54,108.1194,20.07,21.05,62.41,0,111.1,13.06,20.89,172.4
"2016-06-21 00:06:30",1740904,1.531,206.6,9.65,0.205,20.63,108.1205,20.07,21.07,62.57,0,111.1,13.06,20.89,168.6
"2016-06-21 00:07:00",1740905,0.825,218.6,7.595,0.158,20.64,108.1378,20.11,21.09,62.52,0,111.1,13.06,20.94,180.6
"2016-06-21 00:07:30",1740906,1.055,218.4,6.303,0.482,20.56,108.1516,20.15,21.1,62.18,0,111.1,13.06,20.97,180.4
"2016-06-21 00:08:00",1740907,1.645,219.3,10.11,0.254,20.49,108.1516,20.15,21.11,62.25,0,111.1,13.06,20.97,181.3
"2016-06-21 00:08:30",1740908,1.327,215.7,11.76,0.336,20.57,108.1461,20.13,21.13,62.38,0,111.1,13.06,20.96,177.7
"2016-06-21 00:09:00",1740909,1.092,202.3,17.9,0.221,20.5,108.1528,20.15,21.15,62.31,0,111.1,13.06,20.97,164.3
"2016-06-21 00:09:30",1740910,0.378,183.4,12.66,0.279,20.33,108.1602,20.17,21.16,62.74,0,111.1,13.06,20.99,145.4
"2016-06-21 00:10:00",1740911,0.39,145.1,9.69,0.146,20.38,108.1631,20.18,21.17,62.9,0,111.1,13.06,21.00,107.1
"2016-06-21 00:10:30",1740912,0.901,178.4,18.25,0.163,20.42,108.1631,20.18,21.18,62.43,0,111.1,13.06,21.00,140.4
"2016-06-21 00:11:00",1740913,0.705,195.7,8.86,0.135,20.5,108.164,20.18,21.2,62.09,0,111.1,13.06,21.00,157.7
"2016-06-21 00:11:30",1740914,1.002,236.1,7.51,0.256,20.5,108.1634,20.18,21.21,61.7,0,111.1,13.06,21.00,198.1
"2016-06-21 00:12:00",1740915,0.779,238.3,6.518,0.256,20.65,108.1511,20.15,21.22,62.44,0,111.1,13.06,20.97,200.3
"2016-06-21 00:12:30",1740916,0.937,240.6,7.504,0.166,20.62,108.126,20.08,21.19,62.43,0,111.1,13.06,20.90,202.6
"2016-06-21 00:13:00",1740917,1.272,253.8,4.764,0.219,20.68,108.1287,20.09,21.16,62.09,0,111.1,13.06,20.91,215.8
"2016-06-21 00:13:30",1740918,1.6,253.8,6.204,0.202,20.77,108.1399,20.12,21.16,62.17,0,111.1,13.06,20.94,215.8
"2016-06-21 00:14:00",1740919,1.606,255.5,4.405,0.126,20.92,108.1589,20.17,21.16,62.15,0,111.1,13.06,20.99,217.5
"2016-06-21 00:14:30",1740920,1.555,244.9,7.366,0.149,21.02,108.1597,20.17,21.18,62.05,0,111.1,13.06,20.99,206.9
"2016-06-21 00:15:00",1740921,1.242,235.8,3.371,0.163,21.17,108.1597,20.17,21.19,61.92,0,111.1,13.05,20.99,197.8
"2016-06-21 00:15:30",1740922,1.193,241.7,11.33,0.331,21.29,108.1635,20.18,21.2,61.74,0,111.1,13.05,21.00,203.7
"2016-06-21 00:16:00",1740923,2.001,250.2,5.478,0.228,21.23,108.1756,20.21,21.23,62.02,0,111.1,13.05,21.03,212.2
"2016-06-21 00:16:30",1740924,1.812,244,5.69,0.222,21.33,108.1888,20.24,21.21,62.46,0,111.1,13.05,21.07,206.0
"2016-06-21 00:17:00",1740925,1.485,238,6.044,0.249,21.45,108.1657,20.18,21.25,62.23,0,111.1,13.05,21.01,200.0
"2016-06-21 00:17:30",1740926,1.046,238.9,12.97,0.242,21.45,108.1616,20.17,21.23,62.28,0,111.1,13.05,21.00,200.9
"2016-06-21 00:18:00",1740927,0.846,218.6,5.897,0.211,21.54,108.1607,20.17,21.23,62.39,0,111.1,13.05,20.99,180.6
"2016-06-21 00:18:30",1740928,1.259,231.2,5.874,0.228,21.57,108.1613,20.17,21.23,62.18,0,111.1,13.05,21.00,193.2
"2016-06-21 00:19:00",1740929,1.7,234.2,10.43,0.242,21.58,108.16,20.17,21.21,62.19,0,111.1,13.05,20.99,196.2
"2016-06-21 00:19:30",1740930,2.228,246.6,4.136,0.163,21.55,108.1622,20.18,21.23,62.2,0,111.1,13.05,21.00,208.6
"2016-06-21 00:20:00",1740931,2.308,242.9,2.266,0.065,21.62,108.1628,20.18,21.22,62.42,0,111.1,13.05,21.00,204.9
"2016-06-21 00:20:30",1740932,2.505,249.4,2.558,0.102,21.67,108.1622,20.18,21.21,62.45,0,111.1,13.05,21.00,211.4
"2016-06-21 00:21:00",1740933,2.263,250.6,2.472,0.099,21.72,108.1628,20.18,21.22,62.38,0,111.1,13.06,21.00,212.6
"2016-06-21 00:21:30",1740934,2.261,244.4,4.682,0.12,21.81,108.1498,20.14,21.21,62.38,0,111.1,13.06,20.97,206.4
"2016-06-21 00:22:00",1740935,2.224,248.6,5.256,0.091,21.88,108.1324,20.1,21.2,62.25,0,111.1,13.06,20.92,210.6
"2016-06-21 00:22:30",1740936,2.612,237.9,5.643,0.146,21.85,108.1336,20.1,21.19,62.07,0,111.1,13.06,20.92,199.9
"2016-06-21 00:23:00",1740937,2.485,230.8,2.439,0.181,21.84,108.1252,20.08,21.18,62.28,0,111.1,13.06,20.90,192.8
"2016-06-21 00:23:30",1740938,2.495,235.1,1.876,0.067,21.91,108.1093,20.04,21.16,62.51,0,111.1,13.06,20.86,197.1
"2016-06-21 00:24:00",1740939,2.526,231,3.202,0.16,21.92,108.1093,20.04,21.12,62.47,0,111.1,13.06,20.86,193.0
"2016-06-21 00:24:30",1740940,2.183,235.5,3.534,0.067,22.02,108.0957,20.01,21.11,62.45,0,111.1,13.06,20.83,197.5
"2016-06-21 00:25:00",1740941,2.22,234.5,1.722,0.088,22.04,108.0841,19.98,21.07,62.17,0,111.1,13.06,20.80,196.5
"2016-06-21 00:25:30",1740942,2.098,233.7,2.344,0.154,22.11,108.0821,19.97,21.05,62.07,0,111.1,13.06,20.79,195.7
"2016-06-21 00:26:00",1740943,2.533,239.2,2.77,0.091,22.07,108.0599,19.91,21.03,62.03,0,111.1,13.06,20.73,201.2
"2016-06-21 00:26:30",1740944,2.442,239.5,1.502,0.062,22.12,108.0516,19.89,21,61.95,0,111.1,13.06,20.71,201.5
"2016-06-21 00:27:00",1740945,2.852,242.9,1.412,0.241,22.06,108.0539,19.9,20.97,61.86,0,111.1,13.06,20.72,204.9
"2016-06-21 00:27:30",1740946,2.958,241.5,1.884,0.106,22,108.0374,19.86,20.95,62.05,0,111.1,13.06,20.68,203.5
"2016-06-21 00:28:00",1740947,3.1,234.5,3.601,0.179,21.94,108.0246,19.82,20.91,62.17,0,111.1,13.06,20.64,196.5
"2016-06-21 00:28:30",1740948,3.026,239,2.568,0.297,22.01,108.0247,19.82,20.89,62.41,0,111.1,13.06,20.64,201.0
"2016-06-21 00:29:00",1740949,3.92,236.1,3.105,0.344,21.84,108.0045,19.77,20.87,62.65,0,111,13.06,20.59,198.1
"2016-06-21 00:29:30",1740950,4.204,234.9,1.805,0.127,21.86,107.9933,19.74,20.85,63.2,0,111,13.06,20.56,196.9
"2016-06-21 00:30:00",1740951,4.358,238.5,1.585,0.136,21.93,107.993,19.74,20.82,63.52,0,111,13.06,20.56,200.5
"2016-06-21 00:30:30",1740952,4.385,233.4,4.911,0.156,21.88,107.9778,19.7,20.81,63.57,0,111,13.07,20.52,195.4
"2016-06-21 00:31:00",1740953,4.302,229.9,1.442,0.142,22,107.9595,19.66,20.79,63.83,0,111,13.07,20.48,191.9
"2016-06-21 00:31:30",1740954,3.873,234,2.263,0.145,22.04,107.9595,19.66,20.76,63.73,0,111,13.07,20.48,196.0
"2016-06-21 00:32:00",1740955,4.449,233.8,2.944,0.378,21.99,107.9449,19.62,20.74,63.66,0,111,13.07,20.44,195.8
"2016-06-21 00:32:30",1740956,4.623,236.1,1.885,0.229,22,107.9261,19.57,20.7,64.35,0,111,13.06,20.39,198.1
"2016-06-21 00:33:00",1740957,4.868,231.3,2.734,0.163,21.93,107.9247,19.57,20.68,64.33,0,111,13.06,20.39,193.3
"2016-06-21 00:33:30",1740958,4.563,232.6,1.899,0.234,21.92,107.9058,19.52,20.66,64.7,0,111,13.06,20.34,194.6
"2016-06-21 00:34:00",1740959,4.47,233.4,2.066,0.154,22.06,107.8921,19.48,20.62,64.61,0,111,13.06,20.30,195.4
"2016-06-21 00:34:30",1740960,3.902,239.6,2.429,0.234,22.13,107.8842,19.46,20.59,64.37,0,111,13.06,20.28,201.6
"2016-06-21 00:35:00",1740961,3.444,234.8,3.087,0.112,22.22,107.8583,19.4,20.56,64.09,0,111,13.06,20.22,196.8
"2016-06-21 00:35:30",1740962,3.506,240,2.386,0.183,22.23,107.8575,19.39,20.52,63.66,0,111,13.06,20.21,202.0
"2016-06-21 00:36:00",1740963,3.312,241.8,1.932,0.098,22.28,107.8339,19.33,20.49,63.37,0,111,13.06,20.15,203.8
"2016-06-21 00:36:30",1740964,3.042,243.9,3.411,0.098,22.29,107.8261,19.31,20.46,63.17,0,111,13.06,20.13,205.9
"2016-06-21 00:37:00",1740965,3.098,242,2.663,0.146,22.33,107.8298,19.32,20.43,62.94,0,111,13.06,20.14,204.0
"2016-06-21 00:37:30",1740966,2.697,242.2,2.537,0.17,22.36,107.8207,19.3,20.4,62.75,0,111,13.07,20.12,204.2
"2016-06-21 00:38:00",1740967,2.539,241.5,1.364,0.104,22.27,107.8066,19.26,20.39,62.66,0,111,13.07,20.08,203.5
"2016-06-21 00:38:30",1740968,2.364,242,2.06,0.061,22.18,107.8103,19.27,20.36,62.64,0,111,13.07,20.09,204.0
"2016-06-21 00:39:00",1740969,2.153,242.6,2.818,0.118,22.27,107.8169,19.29,20.36,62.67,0,111,13.07,20.11,204.6
"2016-06-21 00:39:30",1740970,2.389,244.1,3.402,0.187,22.1,107.8165,19.29,20.34,62.77,0,111,13.07,20.11,206.1
"2016-06-21 00:40:00",1740971,2.728,241.2,2.703,0.131,22.06,107.8128,19.28,20.33,63.08,0,111,13.07,20.10,203.2
"2016-06-21 00:40:30",1740972,2.794,238.2,2.076,0.129,22.1,107.809,19.27,20.32,63.31,0,111,13.07,20.09,200.2
"2016-06-21 00:41:00",1740973,3.174,236,1.473,0.154,22.03,107.7982,19.24,20.31,63.43,0,111,13.08,20.06,198.0
"2016-06-21 00:41:30",1740974,3.421,234.9,0.85,0.062,22.03,107.7946,19.23,20.3,63.77,0,111,13.08,20.05,196.9
"2016-06-21 00:42:00",1740975,3.176,232.9,1.139,0.129,22.15,107.7935,19.23,20.3,63.76,0,111,13.08,20.05,194.9
"2016-06-21 00:42:30",1740976,2.631,229.2,2.578,0.201,22.22,107.7935,19.23,20.28,63.48,0,111,13.08,20.05,191.2
"2016-06-21 00:43:00",1740977,2.234,227,1.339,0.115,22.28,107.7935,19.23,20.27,63.14,0,111,13.08,20.05,189.0
"2016-06-21 00:43:30",1740978,1.968,224.7,1.604,0.144,22.2,107.7935,19.23,20.28,63.01,0,111,13.08,20.05,186.7
"2016-06-21 00:44:00",1740979,1.739,223.3,1.263,0.051,22.17,107.7935,19.23,20.27,62.96,0,111,13.08,20.05,185.3
"2016-06-21 00:44:30",1740980,1.744,223.7,1.862,0.074,22.07,107.7935,19.23,20.25,62.97,0,111,13.08,20.05,185.7
"2016-06-21 00:45:00",1740981,1.809,227,2.084,0.165,21.94,107.7935,19.23,20.25,63.07,0,111,13.08,20.05,189.0
"2016-06-21 00:45:30",1740982,2.092,233.7,2.692,0.084,21.89,107.7935,19.23,20.25,63.4,0,111,13.08,20.05,195.7
"2016-06-21 00:46:00",1740983,2.131,231.1,3.017,0.074,21.91,107.7935,19.23,20.26,63.64,0,111,13.08,20.05,193.1
"2016-06-21 00:46:30",1740984,2.162,225.5,1.985,0.057,21.83,107.7935,19.23,20.25,63.44,0,111,13.08,20.05,187.5
"2016-06-21 00:47:00",1740985,1.959,220.5,2.524,0.081,21.75,107.7935,19.23,20.25,63.1,0,111,13.08,20.05,182.5
"2016-06-21 00:47:30",1740986,1.89,216.8,1.157,0.051,21.61,107.7935,19.23,20.26,62.6,0,111,13.08,20.05,178.8
"2016-06-21 00:48:00",1740987,1.58,215.2,0.953,0.082,21.6,107.7935,19.23,20.27,62.24,0,111,13.08,20.05,177.2
"2016-06-21 00:48:30",1740988,1.442,211,2.164,0.033,21.49,107.7961,19.24,20.28,62.08,0,111,13.08,20.06,173.0
"2016-06-21 00:49:00",1740989,1.352,212.2,2.449,0.101,21.34,107.8149,19.28,20.29,61.97,0,110.9,13.08,20.10,174.2
"2016-06-21 00:49:30",1740990,1.23,212.8,2.778,0.048,21.19,107.8261,19.31,20.3,61.8,0,111,13.08,20.13,174.8
"2016-06-21 00:50:00",1740991,1.219,216.2,1.039,0.042,21.14,107.8273,19.32,20.31,61.78,0,111,13.07,20.14,178.2
"2016-06-21 00:50:30",1740992,1.149,218.7,1.815,0.051,21.26,107.8284,19.32,20.32,61.76,0,110.9,13.07,20.14,180.7
"2016-06-21 00:51:00",1740993,1.244,224.1,1.114,0.064,21.02,107.8467,19.37,20.33,61.74,0,111,13.07,20.19,186.1
"2016-06-21 00:51:30",1740994,1.041,224.3,1.61,0.104,21.04,107.861,19.4,20.37,61.62,0,111,13.07,20.22,186.3
"2016-06-21 00:52:00",1740995,0.932,226.8,1.345,0.079,20.87,107.8618,19.41,20.39,61.32,0,111,13.07,20.22,188.8
"2016-06-21 00:52:30",1740996,0.794,227.7,1.106,0.09,20.88,107.8835,19.46,20.42,61.13,0,111,13.07,20.28,189.7
"2016-06-21 00:53:00",1740997,0.627,228.9,2.672,0.047,20.98,107.8947,19.49,20.43,60.97,0,111,13.07,20.31,190.9
"2016-06-21 00:53:30",1740998,0.606,226.1,1.991,0.045,20.87,107.9158,19.54,20.47,60.9,0,111,13.07,20.36,188.1
"2016-06-21 00:54:00",1740999,0.377,226.5,2.664,0.084,20.83,107.9285,19.58,20.51,60.78,0,111,13.07,20.40,188.5
"2016-06-21 00:54:30",1741000,0.321,221.4,3.834,0.105,20.7,107.951,19.63,20.55,60.61,0,111,13.07,20.45,183.4
"2016-06-21 00:55:00",1741001,0.035,221.9,5.078,0.094,20.59,107.9628,19.66,20.58,60.53,0,111,13.07,20.48,183.9
"2016-06-21 00:55:30",1741002,-0.158,200.9,11.85,0.035,20.5,107.9891,19.73,20.62,60.32,0,111,13.07,20.55,162.9
"2016-06-21 00:56:00",1741003,-0.172,165.5,8.8,0.037,20.58,107.9994,19.76,20.67,60.11,0,111,13.07,20.58,127.5
"2016-06-21 00:56:30",1741004,-0.083,156.8,4.112,0.043,20.63,108.0225,19.82,20.7,59.92,0,111,13.07,20.64,118.8
"2016-06-21 00:57:00",1741005,0.079,144.7,6.97,0.041,20.64,108.0374,19.86,20.74,59.61,0,111,13.07,20.68,106.7
"2016-06-21 00:57:30",1741006,0.185,143.2,2.01,0.049,20.59,108.054,19.9,20.78,59.17,0,111,13.07,20.72,105.2
"2016-06-21 00:58:00",1741007,0.356,148.5,1.927,0.088,20.62,108.0709,19.94,20.83,58.8,0,111,13.07,20.76,110.5
"2016-06-21 00:58:30",1741008,0.209,140.1,6.823,0.054,20.69,108.0828,19.97,20.87,58.56,0,111,13.07,20.79,102.1
"2016-06-21 00:59:00",1741009,0.137,132,6.977,0.054,20.74,108.097,20.01,20.92,58.4,0,111,13.07,20.83,94.0
"2016-06-21 00:59:30",1741010,0.19,117.1,8.53,0.058,20.87,108.1256,20.08,20.97,58.34,0,111,13.07,20.90,79.1
"2016-06-21 01:00:00",1741011,0.194,96.7,3.345,0.064,21.14,108.1481,20.14,21.03,58.32,0,111,13.07,20.96,58.7
"2016-06-21 01:00:30",1741012,0.248,101.3,3.59,0.034,21.09,108.1661,20.19,21.07,58.25,0,111,13.07,21.01,63.3
"2016-06-21 01:01:00",1741013,0.378,126.4,6.747,0.115,21.07,108.1953,20.26,21.12,58.01,0,111,13.07,21.08,88.4
"2016-06-21 01:01:30",1741014,0.442,126.5,2.502,0.055,21.06,108.2167,20.32,21.17,57.69,0,111,13.07,21.14,88.5
"2016-06-21 01:02:00",1741015,0.323,126.3,4.616,0.043,21.17,108.2299,20.35,21.22,57.45,0,111,13.07,21.17,88.3
"2016-06-21 01:02:30",1741016,0.294,116.2,7.359,0.048,21.24,108.2591,20.42,21.26,57.17,0,111,13.07,21.25,78.2
"2016-06-21 01:03:00",1741017,0.292,110.9,5.307,0.069,21.32,108.2673,20.45,21.31,56.92,0,111.1,13.06,21.27,72.9
"2016-06-21 01:03:30",1741018,0.448,112.7,3.117,0.038,21.38,108.2957,20.52,21.36,56.66,0,111.1,13.06,21.34,74.7
"2016-06-21 01:04:00",1741019,0.496,120.3,3.664,0.071,21.38,108.3066,20.55,21.41,56.38,0,111.1,13.06,21.37,82.3
"2016-06-21 01:04:30",1741020,0.461,118.4,4.813,0.065,21.59,108.3297,20.61,21.44,56.17,0,111.1,13.06,21.43,80.4
"2016-06-21 01:05:00",1741021,0.488,116.3,2.097,0.034,21.59,108.3328,20.61,21.49,56.02,0,111.1,13.06,21.44,78.3
"2016-06-21 01:05:30",1741022,0.632,132.1,5.978,0.124,21.57,108.3592,20.68,21.52,55.84,0,111.1,13.06,21.51,94.1
"2016-06-21 01:06:00",1741023,0.641,134.5,2.242,0.084,21.64,108.3643,20.69,21.58,55.66,0,111.1,13.06,21.52,96.5
"2016-06-21 01:06:30",1741024,0.545,131.7,4.807,0.089,21.79,108.3766,20.73,21.6,55.53,0,111.1,13.06,21.55,93.7
"2016-06-21 01:07:00",1741025,0.63,119,4.856,0.095,21.9,108.3963,20.78,21.63,55.49,0,111.1,13.06,21.60,81.0
"2016-06-21 01:07:30",1741026,0.485,120,10.17,0.103,21.95,108.398,20.78,21.67,55.35,0,111.1,13.06,21.61,82.0
"2016-06-21 01:08:00",1741027,0.683,135.8,14.42,0.176,22.1,108.398,20.78,21.71,55.29,0,111.1,13.06,21.61,97.8
"2016-06-21 01:08:30",1741028,0.358,172.4,35.73,0.348,22.2,108.3842,20.75,21.71,55.46,0,111.1,13.06,21.57,134.4
"2016-06-21 01:09:00",1741029,0.922,180.4,13.97,0.526,22.24,108.364,20.69,21.69,55.61,0,111.1,13.05,21.52,142.4
"2016-06-21 01:09:30",1741030,0.76,156.9,20.7,0.244,22.2,108.364,20.69,21.68,55.77,0,111.1,13.05,21.52,118.9
"2016-06-21 01:10:00",1741031,0.624,132.6,3.808,0.07,22.17,108.364,20.69,21.67,55.78,0,111.1,13.05,21.52,94.6
"2016-06-21 01:10:30",1741032,0.711,141.3,5.674,0.061,22.06,108.3643,20.69,21.66,55.74,0,111.1,13.05,21.52,103.3
"2016-06-21 01:11:00",1741033,0.685,133.6,0.74,0.016,21.94,108.3643,20.69,21.66,55.61,0,111.1,13.05,21.52,95.6
"2016-06-21 01:11:30",1741034,0.731,138,3.251,0.031,21.94,108.3643,20.69,21.67,55.45,0,111.1,13.05,21.52,100.0
"2016-06-21 01:12:00",1741035,0.981,147.9,2.272,0.072,21.99,108.3643,20.69,21.68,55.45,0,111.1,13.05,21.52,109.9
"2016-06-21 01:12:30",1741036,1.311,150.1,0.948,0.12,21.96,108.3643,20.69,21.68,55.56,0,111.1,13.06,21.52,112.1
"2016-06-21 01:13:00",1741037,1.472,149.3,0.83,0.034,22,108.3643,20.69,21.67,55.65,0,111.1,13.06,21.52,111.3
"2016-06-21 01:13:30",1741038,1.432,143,1.944,0.038,21.96,108.3643,20.69,21.68,55.67,0,111.1,13.06,21.52,105.0
"2016-06-21 01:14:00",1741039,1.414,138.4,1.712,0.053,21.96,108.3643,20.69,21.67,55.58,0,111.1,13.06,21.52,100.4
"2016-06-21 01:14:30",1741040,1.393,138.2,1.494,0.048,21.94,108.3643,20.69,21.67,55.51,0,111.1,13.06,21.52,100.2
"2016-06-21 01:15:00",1741041,1.471,136.7,1.455,0.063,21.89,108.3643,20.69,21.69,55.43,0,111.1,13.06,21.52,98.7
"2016-06-21 01:15:30",1741042,1.535,132.7,1.825,0.046,22.01,108.3643,20.69,21.69,55.34,0,111.1,13.06,21.52,94.7
"2016-06-21 01:16:00",1741043,1.456,138.6,2.71,0.042,22.01,108.3643,20.69,21.68,55.31,0,111.1,13.06,21.52,100.6
"2016-06-21 01:16:30",1741044,1.453,143.6,0.904,0.046,22.14,108.3643,20.69,21.7,55.29,0,111.1,13.06,21.52,105.6
"2016-06-21 01:17:00",1741045,1.455,141.7,1.112,0.112,22.15,108.3643,20.69,21.7,55.28,0,111.1,13.06,21.52,103.7
"2016-06-21 01:17:30",1741046,1.613,144.2,3.786,0.05,22.02,108.3643,20.69,21.7,55.29,0,111.1,13.06,21.52,106.2
"2016-06-21 01:18:00",1741047,1.638,143.9,2.868,0.075,21.96,108.3643,20.69,21.7,55.36,0,111.1,13.06,21.52,105.9
"2016-06-21 01:18:30",1741048,1.649,141.4,1.615,0.07,22.09,108.3643,20.69,21.71,55.38,0,111.1,13.06,21.52,103.4
"2016-06-21 01:19:00",1741049,1.712,143.2,2.779,0.093,22.21,108.3643,20.69,21.7,55.36,0,111.1,13.06,21.52,105.2
"2016-06-21 01:19:30",1741050,2.016,142,3.015,0.15,22.3,108.3643,20.69,21.72,55.37,0,111.1,13.06,21.52,104.0
"2016-06-21 01:20:00",1741051,2.193,143.6,1.421,0.061,22.38,108.3643,20.69,21.72,55.38,0,111.1,13.06,21.52,105.6
"2016-06-21 01:20:30",1741052,2.286,142.9,1.229,0.08,22.31,108.3643,20.69,21.72,55.38,0,111.1,13.06,21.52,104.9
"2016-06-21 01:21:00",1741053,2.507,145.2,1.256,0.056,22.48,108.3643,20.69,21.72,55.43,0,111.1,13.06,21.52,107.2
"2016-06-21 01:21:30",1741054,2.671,154.1,1.518,0.063,22.19,108.3643,20.69,21.72,55.58,0,111.1,13.06,21.52,116.1
"2016-06-21 01:22:00",1741055,2.762,153.4,0.855,0.108,22.27,108.364,20.69,21.71,55.71,0,111.1,13.06,21.52,115.4
"2016-06-21 01:22:30",1741056,2.752,155.8,4.385,0.09,22.26,108.3617,20.69,21.71,55.77,0,111.1,13.06,21.51,117.8
"2016-06-21 01:23:00",1741057,2.916,168.9,4.148,0.203,21.83,108.3367,20.62,21.7,56.45,0,111.1,13.06,21.45,130.9
"2016-06-21 01:23:30",1741058,2.918,176.6,3.244,0.163,21.79,108.3271,20.6,21.7,57.16,0,111.1,13.06,21.42,138.6
"2016-06-21 01:24:00",1741059,3.278,177.4,4.969,0.292,21.85,108.3036,20.54,21.67,57.72,0,111.1,13.06,21.36,139.4
"2016-06-21 01:24:30",1741060,2.907,169.4,5.695,0.157,22.56,108.2971,20.52,21.64,57.29,0,111.1,13.06,21.35,131.4
"2016-06-21 01:25:00",1741061,2.89,173.1,5.596,0.167,22.83,108.2957,20.52,21.61,56.78,0,111.1,13.06,21.34,135.1
"2016-06-21 01:25:30",1741062,2.759,181.2,4.932,0.201,22.87,108.2715,20.46,21.6,56.63,0,111.1,13.06,21.28,143.2
"2016-06-21 01:26:00",1741063,2.547,171,7.751,0.188,22.88,108.264,20.44,21.57,56.65,0,111.1,13.06,21.26,133.0
"2016-06-21 01:26:30",1741064,2.281,170.4,6.53,0.305,22.8,108.2646,20.44,21.55,56.65,0,111,13.06,21.26,132.4
"2016-06-21 01:27:00",1741065,2.755,182.7,4.311,0.289,22.86,108.2551,20.41,21.53,56.85,0,111,13.06,21.24,144.7
"2016-06-21 01:27:30",1741066,2.766,181.7,4.472,0.145,22.77,108.2347,20.36,21.5,57.03,0,111,13.06,21.18,143.7
"2016-06-21 01:28:00",1741067,2.63,176.5,5.419,0.199,22.73,108.2379,20.37,21.48,57.09,0,111,13.06,21.19,138.5
"2016-06-21 01:28:30",1741068,2.388,172.6,6.143,0.276,22.72,108.2379,20.37,21.46,57.06,0,111,13.06,21.19,134.6
"2016-06-21 01:29:00",1741069,2.528,172.8,3.167,0.19,22.65,108.2279,20.34,21.44,57.21,0,111.1,13.06,21.17,134.8
"2016-06-21 01:29:30",1741070,2.635,176.6,1.786,0.123,22.69,108.2208,20.33,21.42,57.3,0,111,13.06,21.15,138.6
"2016-06-21 01:30:00",1741071,2.578,175,2.428,0.207,22.66,108.2184,20.32,21.4,57.47,0,111,13.06,21.14,137.0
"2016-06-21 01:30:30",1741072,2.851,172.8,3.687,0.135,22.68,108.2209,20.33,21.38,57.58,0,111,13.07,21.15,134.8
"2016-06-21 01:31:00",1741073,2.57,171.1,3.447,0.2,22.76,108.2233,20.33,21.38,57.67,0,111,13.07,21.16,133.1
"2016-06-21 01:31:30",1741074,2.85,177.5,2.96,0.176,22.73,108.2213,20.33,21.38,57.77,0,111,13.07,21.15,139.5
"2016-06-21 01:32:00",1741075,2.592,179.6,7.369,0.152,22.78,108.2048,20.29,21.35,57.84,0,111,13.07,21.11,141.6
"2016-06-21 01:32:30",1741076,2.287,175,5.63,0.313,22.68,108.1948,20.26,21.34,57.9,0,111,13.07,21.08,137.0
"2016-06-21 01:33:00",1741077,2.631,168.2,2.545,0.18,22.72,108.1929,20.25,21.32,57.93,0,111,13.07,21.08,130.2
"2016-06-21 01:33:30",1741078,2.853,170.3,2.777,0.108,22.71,108.1969,20.26,21.32,58.02,0,111,13.07,21.09,132.3
"2016-06-21 01:34:00",1741079,3.092,170.7,5.148,0.371,22.7,108.1978,20.27,21.29,58.07,0,111,13.07,21.09,132.7
"2016-06-21 01:34:30",1741080,3.477,176.3,6.428,0.23,22.75,108.1964,20.26,21.29,58.07,0,111,13.07,21.09,138.3
"2016-06-21 01:35:00",1741081,3.732,175.3,4.578,0.414,22.74,108.1824,20.23,21.28,58.08,0,111,13.07,21.05,137.3
"2016-06-21 01:35:30",1741082,3.284,165.8,4.971,0.163,22.71,108.168,20.19,21.26,58.19,0,111,13.07,21.01,127.8
"2016-06-21 01:36:00",1741083,3.548,177.7,3.886,0.194,22.75,108.1646,20.18,21.25,58.16,0,111,13.07,21.00,139.7
"2016-06-21 01:36:30",1741084,3.144,174.3,3.959,0.218,22.72,108.1646,20.18,21.24,58.11,0,111,13.07,21.00,136.3
"2016-06-21 01:37:00",1741085,3.391,172.7,9.36,0.692,22.75,108.1646,20.18,21.22,58.13,0,111,13.07,21.00,134.7
"2016-06-21 01:37:30",1741086,3.012,172.1,7.483,0.453,22.66,108.1627,20.18,21.23,58.14,0,111,13.07,21.00,134.1
"2016-06-21 01:38:00",1741087,2.683,172.9,4.208,0.223,22.7,108.1489,20.14,21.21,58.22,0,111,13.07,20.96,134.9
"2016-06-21 01:38:30",1741088,3.25,178.3,4.365,0.161,22.66,108.1405,20.12,21.2,58.25,0,111,13.07,20.94,140.3
"2016-06-21 01:39:00",1741089,3.035,176.9,4.508,0.336,22.6,108.1374,20.11,21.19,58.26,0,111,13.07,20.93,138.9
"2016-06-21 01:39:30",1741090,2.826,174.5,3.953,0.156,22.57,108.1317,20.1,21.2,58.32,0,111,13.08,20.92,136.5
"2016-06-21 01:40:00",1741091,2.508,171.5,3.041,0.138,22.58,108.1309,20.1,21.18,58.33,0,111,13.08,20.92,133.5
"2016-06-21 01:40:30",1741092,2.663,168.9,4.939,0.219,22.57,108.1309,20.1,21.18,58.35,0,111,13.08,20.92,130.9
"2016-06-21 01:41:00",1741093,3.184,174.2,6.243,0.197,22.65,108.1309,20.1,21.16,58.35,0,111,13.08,20.92,136.2
"2016-06-21 01:41:30",1741094,2.737,178.5,6.299,0.413,22.68,108.1309,20.1,21.15,58.33,0,111,13.08,20.92,140.5
"2016-06-21 01:42:00",1741095,2.729,174.4,6.903,0.368,22.68,108.1309,20.1,21.15,58.36,0,111,13.08,20.92,136.4
"2016-06-21 01:42:30",1741096,3.543,173.3,2.961,0.217,22.75,108.1309,20.1,21.14,58.34,0,111,13.08,20.92,135.3
"2016-06-21 01:43:00",1741097,3.359,180.8,2.728,0.331,22.76,108.1306,20.09,21.14,58.31,0,111,13.08,20.92,142.8
"2016-06-21 01:43:30",1741098,2.895,175.6,5.143,0.326,22.69,108.1287,20.09,21.13,58.35,0,111,13.08,20.91,137.6
"2016-06-21 01:44:00",1741099,3.031,185.3,3.438,0.191,22.72,108.1194,20.07,21.14,58.44,0,111,13.08,20.89,147.3
"2016-06-21 01:44:30",1741100,2.773,185.4,4.588,0.22,22.72,108.1136,20.05,21.12,58.43,0,111,13.08,20.87,147.4
"2016-06-21 01:45:00",1741101,2.883,173.3,4.469,0.269,22.53,108.1075,20.04,21.12,58.51,0,111,13.08,20.86,135.3
"2016-06-21 01:45:30",1741102,2.827,169.1,2.288,0.177,22.47,108.1051,20.03,21.12,58.7,0,111,13.08,20.85,131.1
"2016-06-21 01:46:00",1741103,2.707,176.2,5.639,0.246,22.52,108.105,20.03,21.11,58.73,0,111,13.08,20.85,138.2
"2016-06-21 01:46:30",1741104,3.273,183.2,3.015,0.201,22.6,108.1039,20.03,21.11,58.67,0,111,13.08,20.85,145.2
"2016-06-21 01:47:00",1741105,2.972,186.3,2.715,0.169,22.65,108.1051,20.03,21.1,58.55,0,111,13.08,20.85,148.3
"2016-06-21 01:47:30",1741106,3.283,184.9,1.768,0.178,22.61,108.1057,20.03,21.11,58.54,0,111,13.08,20.85,146.9